Regional Weather Roundup
Issued by NWS Newport/Morehead, NC

Current Version | Previous Version | Graphics & Text | Print | Product List | Glossary On
Versions: 1 2 3 4 5 6 7 8 9 10 11 12 13 14 15 16 17 18 19 20 21 22 23 24 25 26 27 28 29 30 31 32 33 34 35 36 37 38 39 40 41 42 43 44 45 46 47 48 49 50
000 ASUS42 KMHX 262113 RWRMHX WEATHER ROUNDUP FOR EASTERN NORTH CAROLINA NATIONAL WEATHER SERVICE NEWPORT/MOREHEAD CITY NC 500 PM EDT WED JUL 26 2017 NOTE: "FAIR" INDICATES FEW OR NO CLOUDS BELOW 12,000 FEET WITH NO SIGNIFICANT WEATHER AND/OR OBSTRUCTIONS TO VISIBILITY NCZ015>017-031-032-045>047-102-103-262200- NORTH COAST CITY SKY/WX TMP DP RH WIND PRES REMARKS EDENTON SUNNY 83 69 62 E9 30.14S ELIZABETH CITY SUNNY 82 69 64 E7 30.13F KITTY HAWK CLEAR 79 65 62 CALM 30.13F MANTEO SUNNY 79 67 66 E13 30.14F $$ NCZ045>047-081-094-103-104-262200- CENTRAL COAST CITY SKY/WX TMP DP RH WIND PRES REMARKS FRISCO SUNNY 80 67 64 NE9 30.13F $$ NCZ095-097-098-100-101-262200- SOUTHERN COAST CITY SKY/WX TMP DP RH WIND PRES REMARKS BEAUFORT MOSUNNY 85 70 60 E9 30.11F CEDAR ISLAND NOT AVBL JACKSONVILLE MOSUNNY 86 66 51 E10 30.10F PINEY ISLAND MOCLDY N/A N/A N/A E12 30.12S WILMINGTON PTSUNNY 84 66 54 E9 30.09F $$ NCZ011>013-027>030-043-044-078>080-089-090>093-098-262200- COASTAL PLAIN CITY SKY/WX TMP DP RH WIND PRES REMARKS AHOSKIE N/A 83 69 61 S6 30.11F CLINTON MOSUNNY 89 70 52 E3 30.09F ELIZABETHTOWN NOT AVBL GOLDSBORO MOSUNNY 88 67 49 E6 30.08F GREENVILLE SUNNY 86 68 54 SE3 30.12F HAVELOCK PTSUNNY 85 63 47 E13 30.12F KENANSVILLE PTSUNNY 86 70 58 SE7 30.10F KINSTON MOSUNNY 88 66 48 S5 30.11F NEW BERN CLOUDY 86 68 54 SE7 30.12F RICHLANDS CLOUDY 85 69 58 E6 30.10F ROCKY MOUNT SUNNY 86 68 54 SE6 30.11F WASHINGTON SUNNY 85 68 57 E7 30.11F WHITEVILLE CLOUDY 85 68 57 E7 30.09F $$ AMZ130-135-150-152-154-156-158-170-250-252-270-ANZ085-086-088-633-658-670-262200- MARINE OBSERVATIONS STATION/POSITION TIME TEMP WIND PRES WAVE SWELL AIR SEA DIR/SP/G HT/PER HT/PER (UTC) (F) (DEG/KT/KT) (MB) (FT/S) (FT/S) CHESAPEAKE LIGHT NOT AVBL 64 E VA BEACH 2050 75 78 60/ 8/ 10 1021.1 3/ 7 3/ 7 DUCK 2036 77 76 70/ 8/ 9 1020.4 2 E DUCK 2100 75 N/A 3/ 6 OREGON INLET 2048 40/ 8/ 11 N/A 13E OREGON INLT 2048 79 N/A 4/ 7 3/ 7 HATTERAS CG 2036 78 78 50/ 10/ 13 1020.2 DIAMOND BUOY 2050 79 83 20/ 14/ 16 1019.5 3/ 6 2/10 CAPE LOOKOUT 2100 79 50/ 12/ 14 1019.2 BEAUFORT LAB 2036 82 81 40/ 11/ 13 1019.1 30 SE NEW RVR IN 2008 80 84 60/ 16/ 19 1019.6 30 SE NEW RVR IN 2043 83 N/A 4/ 5 27 SE WRIGHTSVLE 2008 81 82 80/ 16/ 21 1018.8 5 SE WRIGHTSVLE 2008 81 81 70/ 12/ 17 1019.2 225 S CAPE HAT 2050 81 83 130/ 2/ 4 1018.3 3/ 5 2/ 5 41 SE CHARLESTON 2050 78 82 310/ 2/ 4 1018.0 2/10 2/10 $$

USA.gov is the U.S. government's official web portal to all federal, state and local government web resources and services.